Regional Weather Roundup
Issued by NWS

Home | Current Version | Previous Version | Graphics & Text | Print | Product List | Glossary Off
Versions: 1 2 3 4 5 6 7 8 9 10 11 12 13 14 15 16 17 18 19 20 21 22 23 24 25 26 27 28 29 30 31 32 33 34 35 36 37 38 39 40 41 42 43 44 45 46 47 48 49 50

000
ASUS43 KDMX 190606
RWRIA

WEATHER ROUNDUP FOR IOWA
NATIONAL WEATHER SERVICE DES MOINES IA
100 AM CDT SAT AUG 19 2017

NOTE: "FAIR" INDICATES FEW OR NO CLOUDS BELOW 12,000 FEET WITH NO
SIGNIFICANT WEATHER AND/OR OBSTRUCTIONS TO VISIBILITY.

* - THESE STATIONS ARE NOT NWS STATIONS...THUS NOT UNDER NWS
QUALITY CONTROL.  THEY ALSO DO NOT REPORT WEATHER SUCH
AS PRECIPITATION OR FOG.

IAZ001>003-012>014-020>022-031>034-043>046-190700-
   NORTHWEST IOWA

CITY           SKY/WX    TMP DP  RH WIND       PRES   REMARKS
CARROLL *      CLOUDY    66  66 100 CALM      29.91F
CHEROKEE *     CLEAR     64  61  93 NW3       29.94S
DENISON *      CLOUDY    64  63  94 CALM      29.95S
LE MARS *      CLEAR     63  59  88 CALM      29.96R
ORANGE CITY *  CLEAR     63  63 100 N6        29.95S
SHELDON *      CLEAR     59  57  94 CALM      29.94R
SIOUX CITY     CLEAR     63  61  93 NW7       29.95S
6HR MIN TEMP:  63; 6HR MAX TEMP:  83;

SPENCER        CLEAR     58  57  97 NW5       29.95R
6HR MIN TEMP:  57; 6HR MAX TEMP:  77; 6HR PCP:  0.09;

STORM LAKE *   CLEAR     61  59  94 CALM      29.94S
$$

IAZ055>058-069>071-079>083-090>094-190700-
   SOUTHWEST IOWA

CITY           SKY/WX    TMP DP  RH WIND       PRES   REMARKS
ATLANTIC *     CLEAR     66  64  94 CALM      29.93R
AUDUBON *      CLEAR     66  63  88 W3        29.93S
CLARINDA *     MOCLDY    63  63 100 SW5       29.96S
COUNCIL BLFS * CLEAR     70  66  88 NW7       29.95R
CRESTON *      CLEAR     66  64  94 SW5       29.94S
HARLAN  *      CLEAR     68  66  94 NW10      29.97S
LAMONI         MOCLDY    68  65  90 W5        29.92F
6HR MIN TEMP:  68; 6HR MAX TEMP:  82;

RED OAK *      CLEAR     64  64 100 CALM      29.94S
SHENANDOAH *   PTCLDY    64  63  94 CALM      29.94S
$$

IAZ047>049-059>061-072>074-084-190700-
   CENTRAL IOWA

CITY           SKY/WX    TMP DP  RH WIND       PRES   REMARKS
AMES           LGT RAIN  67  66  97 N12       29.94R
6HR MIN TEMP:  65; 6HR MAX TEMP:  79; 6HR PCP:  0.01;

ANKENY *       CLOUDY    68  64  88 CALM      29.92S
BOONE *        CLOUDY    66  64  94 NE6       29.92R
CHARITON *     PTCLDY    70  66  88 E3        29.92R
DES MOINES     CLOUDY    72  66  81 SE9       29.89F
6HR MIN TEMP:  72; 6HR MAX TEMP:  85; 6HR PCP: TRACE;

GRINNELL*      CLOUDY    65  61  87 E5        29.94S
KNOXVILLE *    MOCLDY    70  64  83 E5        29.90S
MARSHALLTOWN   TSTM      64  62  93 S10       29.98R FOG
6HR MIN TEMP:  63; 6HR MAX TEMP:  76; 6HR PCP:  0.20;

NEWTON *       CLOUDY    68  63  83 NE5       29.93S
PELLA *        CLOUDY    70  63  79 CALM      29.93R
PERRY *        MOCLDY    69  67  94 N8        29.91S
$$

IAZ004>006-015-016-023>025-035-036-190700-
   NORTH CENTRAL IOWA

CITY           SKY/WX    TMP DP  RH WIND       PRES   REMARKS
ALGONA *       MOCLDY    61  61 100 CALM      29.94R
CLARION *      CLOUDY    63  63 100 CALM      29.92F
ESTHERVILLE    CLEAR     55  55 100 CALM      29.95R
6HR MIN TEMP:  55; 6HR MAX TEMP:  72; 6HR PCP:  0.61;

FORT DODGE *   PTCLDY    63  57  82 NE5       29.93S
MASON CITY     MOCLDY    58  56  93 CALM      29.95R
6HR MIN TEMP:  58; 6HR MAX TEMP:  70;

FOREST CITY *    N/A     59  57  94 NW3       29.96R
WEBSTER CITY * CLOUDY    64  63  94 NE7       29.91S
IOWA FALLS *   CLOUDY    63  60  91 S6        29.93F
$$

IAZ007>011-017>019-026>030-037>042-050>054-066-190700-
   NORTHEAST IOWA

CITY           SKY/WX    TMP DP  RH WIND       PRES   REMARKS
CEDAR RAPIDS     N/A     59  59 100 CALM      29.92S
6HR MIN TEMP:  59; 6HR MAX TEMP:  78;

CHARLES CITY * CLOUDY    59  59 100 E7        29.94S
CLINTON *      CLEAR     60  59  96 NE5       29.93R
DECORAH *      FOG       55  55 100 CALM      29.94F VSB 1/4
DUBUQUE        CLEAR     60  57  89 CALM      29.94S
6HR MIN TEMP:  59; 6HR MAX TEMP:  71;

MONTICELLO *   CLEAR     59  57  94 CALM      29.93S FOG
OELWEIN *      CLOUDY    52  52 100 E6        29.93F
WATERLOO       MOCLDY    60  58  92 CALM      29.92S
6HR MIN TEMP:  59; 6HR MAX TEMP:  73;

$$

IAZ064-065-067-068-078-190700-
   EAST CENTRAL IOWA

CITY           SKY/WX    TMP DP  RH WIND       PRES   REMARKS
DAVENPORT      CLEAR     61  58  90 NE7       29.94R
6HR MIN TEMP:  60; 6HR MAX TEMP:  75;

IOWA CITY      MOCLDY    68  61  78 NE6       29.93S
6HR MIN TEMP:  67; 6HR MAX TEMP:  80; 6HR PCP: TRACE;

MT. PLEASANT * CLOUDY    66  66  99 NE3       29.90F
MUSCATINE *    CLOUDY    66  63  88 CALM      29.92R
QUAD CITIES    MOCLDY    66  61  84 E5        29.91S
6HR MIN TEMP:  66; 6HR MAX TEMP:  80;

$$

IAZ062-063-075>077-085>089-095>099-190700-
   SOUTHEAST IOWA

CITY           SKY/WX    TMP DP  RH WIND       PRES   REMARKS
BURLINGTON     PTCLDY    67  65  93 CALM      29.90R
6HR MIN TEMP:  66; 6HR MAX TEMP:  79; 6HR PCP:  0.25;

FAIRFIELD *    CLOUDY    68  63  83 E3        29.90S
FORT MADISON * PTCLDY    64  64 100 CALM      29.91F FOG
KEOKUK *       PTCLDY    66  64  94 CALM      29.89S
OSKALOOSA *      N/A     66  64  94 NE3       29.92R
CENTERVILLE *    N/A     64  64 100 CALM      29.93S
OTTUMWA        PTCLDY    70  66  87 NE6       29.91S
6HR MIN TEMP:  69; 6HR MAX TEMP:  83;

WASHINGTON *   CLOUDY    64  64 100 NE6       29.92S
$$

ABBREVIATIONS USED IN REMARKS
   TC - TEMPERATURES IN CELSIUS
  WCI - WIND CHILL INDEX
   HX - HEAT INDEX
  VSB - VISIBILITY
$$





USA.gov is the U.S. government's official web portal to all federal, state and local government web resources and services.